Regional Weather Roundup
Issued by NWS Goodland, KS

Home | Current Version | Previous Version | Text Only | Print | Product List | Glossary Off
Versions: 1 2 3 4 5 6 7 8 9 10 11 12 13 14 15 16 17 18 19 20 21 22 23 24 25 26 27 28 29 30 31 32 33 34 35 36 37 38 39 40 41 42 43 44 45 46 47 48 49 50

000
ASUS43 KGLD 200159
RWRGLD

GOODLAND FORECAST AREA HOURLY WEATHER ROUNDUP
NATIONAL WEATHER SERVICE GOODLAND KS
800 PM MDT TUE AUG 19 2014

...OFFICIAL OBSERVATIONS...

CITY           SKY/WX    TMP DP  RH WIND       PRES   REMARKS
GOODLAND KS    MOCLDY    82  55  39 S9        29.82R
HILL CITY KS   PTCLDY    86  60  41 S10       29.76R
IMPERIAL NEB   PTCLDY    83  63  50 SE14      29.76R
MCCOOK NEB     PTCLDY    82  63  52 E6        29.74S
AKRON CO       CLOUDY    67  57  70 N5        29.88F
BURLINGTON CO  CLOUDY    82  45  27 SW20G33   29.84R
LIMON CO       CLOUDY    73  47  39 SE10      29.96R
$$

...UNOFFICIAL OBSERVATIONS...

CITY           SKY/WX    TMP DP  RH WIND       PRES   REMARKS
COLBY KS       CLEAR     86  59  39 SE23      29.78S
LENORA KS        N/A     83  32  16 CALM        N/A
NORTON KS      CLEAR     82  52  34 SE9       29.75R
SHARON SPRINGS   N/A     84  51  31 S9G16       N/A
KIT CARSON CO    N/A     81  51  34 MISG        N/A
YUMA CO          N/A     66  60  80 N14         N/A
$$


USA.gov is the U.S. government's official web portal to all federal, state and local government web resources and services.